Tracking 19846 objects as of 19-Sep-2019
HD Live streaming from Space Station
objects crossing your sky now

SOLRAD 1 (GREB)

Track SOLRAD 1 (GREB) now!
10-day predictions
SOLRAD 1 (GREB) is classified as:


NORAD ID: 46
Int'l Code: 1960-007B
Perigee: 583.5 km
Apogee: 887.0 km
Inclination: 66.7 °
Period: 99.4 minutes
Semi major axis: 7106 km
RCS: 0.3563 m2 (medium)
Launch date: June 22, 1960
Source: United States (US)
Launch site: AIR FORCE EASTERN TEST RANGE (AFETR)
aabbcc
Your satellite tracking list
Your tracking list is empty




NASA's NSSDC Master Catalog

Two Line Element Set (TLE):
1    46U 60007B   19261.87438407 -.00000053  00000-0  12747-4 0  9997
2    46  66.6900  63.0332 0213504 332.5283  26.4663 14.49243942 99600
Source of the keplerian elements: AFSPC